Overview Statistics Trail Chart Weather Telemetry Raw packets
 

This is the latest recevied weather packets stored in our database for station/object N4BBA. If no packets are shown the sender has not sent any weather packets the latest 10 day(s).

<< 23 24 25 26 27 28 29 >>
Time Temp. Humidity Pressure Rain* Wind** Luminosity Snow
1777573663 22.22° C 59% 1008.4 hPa 0 mm - 790 W/m² -
1777573360 22.22° C 60% 1008.5 hPa 0 mm - 794 W/m² -
1777573055 22.22° C 62% 1008.4 hPa 0 mm - 801 W/m² -
1777572753 22.22° C 63% 1008.3 hPa 0 mm - 801 W/m² -
1777572453 21.67° C 65% 1008.5 hPa 0 mm - 830 W/m² -
1777572149 21.11° C 65% 1008.4 hPa 0 mm - 835 W/m² -
1777571845 20.56° C 66% 1008.6 hPa 0 mm - 890 W/m² -
1777571541 20.56° C 67% 1008.9 hPa 0 mm - 429 W/m² -
1777571237 20.56° C 68% 1008.8 hPa 0 mm - 383 W/m² -
1777570934 20.56° C 68% 1009 hPa 0 mm - 422 W/m² -
1777570629 21.11° C 71% 1009 hPa 0 mm - 706 W/m² -
1777570327 20° C 73% 1009.1 hPa 0 mm - 953 W/m² -
1777570022 19.44° C 74% 1009.1 hPa 0 mm - 559 W/m² -
1777569718 18.89° C 75% 1009.2 hPa 0 mm - 388 W/m² -
1777569413 18.89° C 77% 1009.2 hPa 0 mm - 423 W/m² -
1777569110 18.89° C 77% 1009.2 hPa 0 mm - 284 W/m² -
1777568808 19.44° C 78% 1009.3 hPa 0 mm - 268 W/m² -
1777568505 19.44° C 79% 1009.3 hPa 0 mm - 328 W/m² -
1777568201 19.44° C 81% 1009.3 hPa 0 mm - 439 W/m² -
1777567898 18.89° C 83% 1009.2 hPa 0 mm - 497 W/m² -
1777567594 19.44° C 85% 1009.1 hPa 0 mm - 464 W/m² -
1777567291 19.44° C 87% 1009.7 hPa 0 mm - 611 W/m² -
1777566990 18.33° C 87% 1009.3 hPa 0 mm - 835 W/m² -
1777566687 18.33° C 88% 1009.4 hPa 0 mm - 369 W/m² -
1777566385 17.78° C 89% 1009.7 hPa 0 mm - 379 W/m² -

* Rain latest hour (hover to see other rain measurements)
** Current wind speed in m/s (hover to see current wind gust speed)